WREN-1

Last updated on Mon Sep 16 2024 00:02:03 GMT+0000 (Coordinated Universal Time)

1 60478U 24149L 24258.90497157 .00025072 00000+0 12144-2 0 9997 2 60478 97.4404 333.9994 0007016 20.4487 339.7027 15.18514197 4416
UTC large
Height (km)
Speed (km/s)
/
Latitude / Longitude
Inclination (degrees)
Orbital Period (minutes)
Azimuth
Elevation
Range (km)
Doppler Factor

Next 0 passes for location: London (51.5072 / 0.1276)

Sorry there are no passes over London.